Regional Weather Roundup
Issued by NWS

Home | Current Version | Previous Version | Text Only | Print | Product List | Glossary Off
Versions: 1 2 3 4 5 6 7 8 9 10 11 12 13 14 15 16 17 18 19 20 21 22 23 24 25 26 27 28 29 30 31 32 33 34 35 36 37 38 39 40 41 42 43 44 45 46 47 48 49 50

363
ASUS43 KLOT 160008
RWRIL

ILLINOIS REGIONAL WEATHER ROUNDUP
NATIONAL WEATHER SERVICE CHICAGO/ROMEOVILLE IL
600 PM CST MON JAN 15 2018

NOTE: "FAIR" INDICATES FEW OR NO CLOUDS BELOW 12,000 FEET WITH NO
SIGNIFICANT WEATHER AND/OR OBSTRUCTIONS TO VISIBILITY.

* THESE STATIONS ARE NOT UNDER NWS QUALITY CONTROL. THEY ALSO MAY NOT
  REPORT WEATHER SUCH AS PRECIPITATION OR FOG.

ILZ001-002-007-009-015-016-024-160100-
NORTHWEST ILLINOIS

CITY           SKY/WX    TMP DP  RH WIND       PRES   REMARKS
MOLINE         MOCLDY     5  -1  76 W17G28    30.41R WCI -14
6HR MIN TEMP:   5; 6HR MAX TEMP:  10; 6HR PCP: TRACE;

STERLING*      LGT SNOW   7   4  87 W22       30.34R FOG     WCI -14
SAVANNA*       LGT SNOW   9   4  81 W13G18    30.36R WCI  -7
$$

ILZ003-004-008-010-011-017-018-160100-
NORTH CENTRAL ILLINOIS

CITY           SKY/WX    TMP DP  RH WIND       PRES   REMARKS
ROCKFORD       LGT SNOW  12   7  80 W13       30.29R VSB 1   WCI  -3
6HR MIN TEMP:  12; 6HR MAX TEMP:  15; 6HR PCP:  0.01;

FREEPORT*      LGT SNOW  11   7  84 W16       30.30R WCI  -6
ROCHELLE*      LGT SNOW  10   6  85 W15       30.30R WCI  -7
DE KALB*       LGT SNOW  11   7  85 W17G23    30.27R WCI  -7
PERU*          MOCLDY     7   0  74 W18G30    30.36R WCI -12
$$

ILZ005-006-012>014-019>023-160100-
NORTHEAST ILLINOIS

CITY           SKY/WX    TMP DP  RH WIND       PRES   REMARKS
CHICAGO-OHARE  LGT SNOW  13   7  77 W14G20    30.26R WCI  -2
6HR MIN TEMP:  13; 6HR MAX TEMP:  24; 6HR PCP: TRACE;

CHICAGO-MIDWAY LGT SNOW  13   7  77 W18       30.28R WCI  -4
6HR MIN TEMP:  13; 6HR MAX TEMP:  24; 6HR PCP: TRACE;

AURORA         LGT SNOW  10   6  84 W20       30.29R FOG     WCI  -9
6HR MIN TEMP:  10; 6HR MAX TEMP:  14; 6HR PCP: TRACE;

LANSING*       FLURRIES  12   8  85 W16       30.29R WCI  -5
JOLIET*        LGT SNOW  12   7  82 W9G20     30.32R WCI  -1
WAUKEGAN       LGT SNOW  19  12  74 W7        30.23R WCI  10
6HR MIN TEMP:  19; 6HR MAX TEMP:  27; 6HR PCP: TRACE;

DUPAGE AIRPORT LGT SNOW  11   8  88 W14G21    30.27R FOG     WCI  -5
6HR MIN TEMP:  11; 6HR MAX TEMP:  17; 6HR PCP: TRACE;

KANKAKEE*      CLOUDY     9   4  78 W20G25    30.34R WCI -10
WHEELING       LGT SNOW  15  10  80 W13       30.27R WCI   1
6HR MIN TEMP:  15; 6HR MAX TEMP:  24; 6HR PCP: TRACE;

MORRIS*        FLURRIES  10   4  78 W16G22    30.32R WCI  -8
ROMEOVILLE*    LGT SNOW  10   7  85 W16       30.30R WCI  -7
NORTHERLY ISL    N/A     14   9  80 W14         N/A  WCI  -1
$$

LMZ740>746-160100-
SOUTHERN LAKE MICHIGAN

STATION/POSITION SKY/WX   TEMP    WIND        PRES    VSBY  WAVE
                          AIR SEA DIR/SP/G                  HT/PER
                          (F)     (DEG/KT/KT) (MB)    (MI)  (FT/S)
HARRISON CRIB              16     250/ 18/ 21   N/A
BURNHAM HARBOR             14     260/ 12/ 16   N/A
CALUMET HARBOR             13     230/ 14/ 20 1024.0R
BURNS HARBOR               15     230/ 13/ 17 1025.4R
MICHIGAN CITY                     200/ 15/ 17   N/A
$$

ILZ025>027-034>036-040-047-049-050-058-095>099-160100-
WEST-CENTRAL ILLINOIS

CITY           SKY/WX    TMP DP  RH WIND       PRES   REMARKS
QUINCY         CLEAR      5  -4  66 NW14      30.49R WCI -12
GALESBURG*     CLOUDY     4  -1  81 W18G25    30.44R HAZE    WCI -16
MACOMB*        CLOUDY     4  -1  78 W18G24    30.48R WCI -16
JACKSONVILLE*  CLEAR      6  -3  68 W12       30.47R WCI -10
PITTSFIELD*    CLEAR      8  -2  64 W9G16     30.49R WCI  -5
$$

ILZ028>032-037-038-041>044-048-051>054-059>061-160100-
CENTRAL ILLINOIS

CITY           SKY/WX    TMP DP  RH WIND       PRES   REMARKS
PONTIAC        FAIR       6   3  86 W16       30.37R WCI -12
BLOOMINGTON    FAIR       4  -1  80 W13       30.38R WCI -13
DECATUR        CLOUDY     7   2  80 NW13      30.43R WCI  -9
PEORIA         CLOUDY     5  -1  76 W12G22    30.42R HAZE    WCI -11
6HR MIN TEMP:   5; 6HR MAX TEMP:  11; 6HR PCP:  0.14;

LACON*         FAIR       6  -1  73 W16G23    30.39R WCI -13
LINCOLN*       MOCLDY     7   0  73 W12G21    30.44R WCI  -9
SPRINGFIELD    FAIR       8   2  76 W13       30.46R WCI  -8
6HR MIN TEMP:   8; 6HR MAX TEMP:  16;

TAYLORVILLE    FAIR       7   0  70 W13       30.46R WCI  -9
6HR MIN TEMP:   7; 6HR MAX TEMP:  15;

$$

ILZ033-039-045-046-055>057-062-063-160100-
EAST-CENTRAL ILLINOIS

CITY           SKY/WX    TMP DP  RH WIND       PRES   REMARKS
CHAMPAIGN      MOCLDY     6   1  80 W15       30.40R WCI -12
DANVILLE*      CLOUDY     9   2  75 W16       30.36R WCI  -9
RANTOUL*       FAIR       7   1  75 W13       30.39R WCI  -9
MATTOON        FAIR       9   2  73 W16       30.41R WCI  -8
PARIS*         CLOUDY    11   6  79 W13G20    30.41R WCI  -4
$$

ILZ079-100>102-160100-
SOUTHWEST ILLINOIS

CITY           SKY/WX    TMP DP  RH WIND       PRES   REMARKS
ALTON          MOCLDY    10   1  67 W14G22    30.49R WCI  -5
BELLEVILLE     CLOUDY    14   2  59 NW10      30.48R WCI   1
CAHOKIA*       CLOUDY    14   1  56 NW20      30.50R WCI  -3
SPARTA*        CLOUDY    16   6  63 NW12G20   30.48R WCI   3
$$

ILZ064>066-069>071-074>076-080>082-084>086-088>090-092>094-160100-
SOUTH-CENTRAL ILLINOIS

CITY           SKY/WX    TMP DP  RH WIND       PRES   REMARKS
CARBONDALE     CLOUDY    21   9  59 NW6       30.45R WCI  13
6HR MIN TEMP:  21; 6HR MAX TEMP:  29;

CAIRO*         LGT SNOW  24  22  93 N7        30.44R WCI  16
EFFINGHAM*     LGT SNOW  14   9  81 W13       30.45R WCI   0
MARION         CLOUDY    21   9  58 NW12      30.45R WCI   9
MT. VERNON     FAIR      17   7  64 VRB7      30.46R WCI   8
CENTRALIA*     CLOUDY    17   7  65 NW13      30.45R WCI   3
SALEM*         MOCLDY    17   5  58 NW15      30.45R WCI   3
METROPOLIS*    LGT SNOW  25  22  91 NW8       30.44R WCI  16
$$

ILZ067-068-072-073-078-083-087-091-160100-
SOUTHEAST ILLINOIS

CITY           SKY/WX    TMP DP  RH WIND       PRES   REMARKS
LAWRENCEVILLE  FAIR      16   8  71 NW9       30.44R WCI   4
FLORA*         FAIR      18   8  65 NW7       29.98F WCI   8
FAIRFIELD*     FAIR      18   8  65 NW3       30.45R
HARRISBURG*    CLOUDY    21  11  66 NW7       30.45R WCI  12
ROBINSON*      FAIR      14   7  73 NW14      30.44R WCI  -1
CARMI*         CLOUDY    19  10  69 NW12      30.44R WCI   6
$$

ABBREVIATIONS USED IN REMARKS
   TC - TEMPERATURE IN CELSIUS
  WCI - WIND CHILL INDEX
   HX - HEAT INDEX
  VSB - VISIBILITY
$$





USA.gov is the U.S. government's official web portal to all federal, state and local government web resources and services.